Terminal Aerodrome Forecast
Issued by NWS

Home | Current Version | Previous Version | Text Only | Print | Product List | Glossary On
Versions: 1 2 3 4 5 6 7 8 9 10 11 12 13 14 15 16 17 18 19 20 21 22 23 24 25 26
000
FTUS43 KDVN 281338 AAA
TAFCID
TAF AMD
KCID 281338Z 2814/2912 20004KT P6SM OVC070
      TEMPO 2814/2816 3SM TSRA BR OVC025CB
     FM281600 18014KT P6SM VCTS BKN035CB
     FM282000 19014G20KT 2SM TSRA BKN025CB
     FM290000 31008KT P6SM SCT025 BKN100=

USA.gov is the U.S. government's official web portal to all federal, state and local government web resources and services.